Regional Weather Roundup
Issued by NWS

Home | Current Version | Previous Version | Text Only | Print | Product List | Glossary On
Versions: 1 2 3 4 5 6 7 8 9 10 11 12 13 14 15 16 17 18 19 20 21 22 23 24 25 26 27 28 29 30 31 32 33 34 35 36 37 38 39 40 41 42 43 44 45 46 47 48 49 50
000
ASUS44 KBMX 080510
RWRAL

ALABAMA REGIONAL WEATHER ROUNDUP
NATIONAL WEATHER SERVICE BIRMINGHAM AL
1200 AM CDT WED JUL 08 2015

NOTE: "FAIR" INDICATES FEW OR NO CLOUDS BELOW 12,000 FEET
WITH NO SIGNIFICANT WEATHER AND/OR OBSTRUCTIONS TO VISIBILITY.

THE REMARK "TC" DENOTES TEMPERATURE IN DEGREES CELSIUS.

ALZ001>011-014-016>018-020-080600-
NORTH ALABAMA

CITY           SKY/WX    TMP DP  RH WIND       PRES   REMARKS
MUSCLE SHOALS  PTCLDY    79  72  79 S6        30.11F
HUNTSVILLE     PTCLDY    79  73  82 S5        30.13S
DECATUR        PTCLDY    78  73  84 S7        30.13S
HALEYVILLE     FAIR      77  74  90 CALM      30.16F
GADSDEN        PTCLDY    82  70  65 CALM      30.15R
$$

ALZ012-013-022-023-030>036-040>044-080600-
WEST CENTRAL ALABAMA

CITY           SKY/WX    TMP DP  RH WIND       PRES   REMARKS
TUSCALOOSA     CLEAR     75  69  81 CALM      30.13S
$$

ALZ015-024>027-033>036-040>044-080600-
CENTRAL ALABAMA

CITY           SKY/WX    TMP DP  RH WIND       PRES   REMARKS
BIRMINGHAM     PTCLDY    81  73  76 CALM      30.17S
MONTGOMERY     PTCLDY    79  74  84 CALM      30.14S
SHELBY CO ARPT PTCLDY    76  74  93 CALM      30.16S
MAXWELL AFB    PTCLDY    77  76  95 CALM      30.14S
GREENVILLE     FAIR      78  70  76 CALM      30.15F
$$

ALZ019-021-028-029-037-038-045>048-080600-
EAST CENTRAL ALABAMA

CITY           SKY/WX    TMP DP  RH WIND       PRES   REMARKS
ANNISTON       PTCLDY    75  72  90 CALM      30.17S
ALEXANDER CITY PTCLDY    74  71  89 CALM      30.17F
AUBURN         PTCLDY    77  70  78 CALM      30.18F
$$

ALZ051>064-080600-
SOUTHWEST ALABAMA

CITY           SKY/WX    TMP DP  RH WIND       PRES   REMARKS
MOBILE         CLEAR     77  74  90 S5        30.15F
BROOKLEY FIELD CLEAR     79  74  84 CALM      30.15F
EVERGREEN      PTCLDY    73  71  93 CALM      30.16S
$$

ALZ049-050-065>069-080600-
SOUTHEAST ALABAMA

CITY           SKY/WX    TMP DP  RH WIND       PRES   REMARKS
DOTHAN         PTCLDY    78  73  84 CALM      30.18F
OZARK          PTCLDY    76  73  90 SW2       30.15F
TROY           PTCLDY    77  74  90 CALM      30.16F
EUFAULA        FAIR      74  72  93 CALM      30.14F
$$



USA.gov is the U.S. government's official web portal to all federal, state and local government web resources and services.